Wind_Speed
71 71 70 68 68 68 70 73 77 79 81 83 83 83 83 83 83 83 83 82 81 79 77 76 74 72 70 68 67 66 64 63 61 60 58 53 50 47 47 47 45 45 45 45 45 44 43 43 42 42 40 39 37 36 36 35 35 34 33 31 27 24 23 25 31 32 30 28 26 26 25 23 23 24 24 24 23 23 22 21 20 19 17 16 15 13 12 9
72 72 72 70 69 68 68 70 74 77 80 82 83 83 84 84 83 83 84 83 82 81 79 77 76 74 72 70 69 68 67 65 64 62 58 54 53 51 50 49 47 46 45 44 44 42 42 43 43 44 43 41 40 39 38 38 37 35 34 31 27 25 26 28 33 33 31 30 28 27 27 26 26 26 26 25 24 24 23 23 22 21 20 19 18 16 14 11
72 72 73 72 70 68 68 68 70 74 77 80 83 83 84 85 84 84 84 84 83 82 81 79 78 77 75 73 71 70 69 68 67 64 58 56 55 53 51 50 49 47 45 44 43 43 43 44 46 46 45 44 43 42 41 40 39 37 35 29 25 27 29 31 34 32 30 30 29 28 28 29 29 29 28 26 25 24 24 24 23 23 22 21 19 18 16 14
73 73 73 73 72 70 69 68 68 71 74 78 81 83 84 85 84 85 85 84 84 83 82 81 80 78 77 75 73 72 72 72 70 64 58 57 57 55 53 52 51 49 46 45 44 44 43 45 48 48 47 46 45 45 44 41 39 38 35 28 27 31 32 33 35 33 30 30 29 29 30 31 31 30 29 28 26 25 26 25 24 24 23 22 21 20 18 17
74 73 73 74 73 72 70 68 68 68 71 74 78 82 84 85 85 85 85 84 84 83 82 82 81 80 78 77 75 75 75 74 71 63 59 59 58 57 56 54 53 50 48 46 45 45 45 47 48 48 48 46 46 45 43 41 40 39 34 30 32 35 34 35 36 35 32 30 30 30 30 31 32 33 32 30 28 27 27 26 25 25 24 23 22 21 21 20
73 73 73 74 74 73 71 70 68 68 68 71 75 79 82 84 85 85 85 85 84 84 83 82 82 81 80 79 78 78 77 75 71 64 61 61 60 59 57 55 54 52 50 48 47 46 46 47 48 48 47 46 45 43 41 40 42 39 34 33 34 35 36 36 37 36 33 32 31 30 30 31 33 35 34 31 29 28 28 27 26 26 25 24 23 23 23 23
73 73 73 74 74 74 73 71 70 68 67 68 72 76 80 83 85 86 85 85 85 84 83 83 83 82 82 81 80 81 80 77 73 66 63 63 62 62 59 57 56 53 51 50 48 48 48 48 48 47 45 45 44 41 40 41 43 40 36 35 36 37 37 37 38 37 34 34 33 32 31 32 34 36 36 32 30 29 28 28 28 27 26 25 24 24 24 24
73 73 73 73 73 74 74 72 71 69 68 67 68 73 77 81 84 85 86 85 85 85 83 83 84 83 83 83 83 83 82 78 75 69 65 64 63 63 62 59 58 55 53 52 50 49 49 49 48 47 46 45 42 40 39 42 44 41 37 36 37 38 38 39 40 38 36 34 34 34 32 32 35 37 36 32 32 31 29 29 28 28 27 26 26 26 25 24
72 72 72 73 73 73 73 73 72 71 69 67 67 69 73 78 81 84 85 86 86 85 84 83 84 83 84 84 84 86 82 77 76 71 65 64 64 64 63 60 59 57 55 53 52 51 50 50 48 47 46 43 41 40 41 44 45 41 38 39 40 40 40 41 41 39 37 35 35 35 33 34 36 38 34 30 33 33 31 30 29 29 28 27 28 28 26 25
71 71 71 72 72 73 73 73 73 72 70 69 67 67 69 74 78 82 84 86 86 86 85 84 83 84 85 86 87 87 82 77 77 74 67 65 64 64 63 60 59 57 56 54 53 52 52 50 48 46 46 44 43 43 43 46 44 40 39 42 43 42 42 43 42 40 38 37 36 35 35 35 39 39 30 27 33 35 34 32 31 31 29 29 29 28 27 26
70 70 70 71 72 72 72 72 73 73 72 70 68 67 67 70 75 79 82 85 86 86 86 84 83 84 85 86 88 88 82 77 79 77 71 68 66 66 64 62 60 58 57 56 54 53 51 50 49 48 47 46 45 44 45 46 44 41 41 43 43 43 43 44 42 41 39 37 36 35 36 38 42 37 24 25 34 36 36 34 33 32 31 31 30 29 28 26
68 69 69 70 70 71 71 72 72 73 72 71 69 68 67 67 71 76 80 84 86 86 86 85 84 85 86 87 88 87 82 78 79 78 73 69 67 67 66 64 62 60 58 57 55 53 50 48 47 49 49 47 44 44 46 46 45 43 43 43 43 43 44 43 41 41 40 38 36 37 39 40 41 32 21 28 36 37 38 36 35 34 32 32 31 30 28 27
66 67 68 69 69 70 70 71 71 72 72 71 70 69 68 67 68 72 77 82 84 85 85 86 85 85 87 88 88 87 82 80 81 79 74 70 68 68 68 66 64 61 60 59 56 54 51 49 48 49 49 46 43 45 47 46 45 44 44 44 44 44 44 42 41 41 40 38 36 39 43 40 37 29 24 32 36 37 39 36 35 34 33 33 32 32 30 29
64 66 67 68 68 69 69 70 70 70 71 71 71 70 68 67 67 69 74 79 83 84 84 86 86 85 88 89 88 86 83 83 83 80 77 73 70 70 70 68 66 64 62 61 59 56 53 51 51 51 50 45 42 45 47 46 46 46 46 47 46 46 45 42 41 42 40 39 38 41 45 39 32 28 28 34 37 39 39 35 35 35 35 34 33 33 31 31
63 64 65 67 67 68 68 69 69 69 70 70 71 70 69 68 67 67 70 76 81 83 85 88 86 82 86 90 88 86 86 86 84 81 78 75 72 71 71 70 68 65 64 62 60 58 55 54 54 54 53 47 43 44 46 46 48 49 50 50 49 49 47 43 43 44 41 40 40 43 45 36 28 28 31 35 37 39 39 36 36 36 35 35 34 33 32 31
61 62 64 65 66 66 67 68 68 69 69 69 70 70 69 68 68 67 69 73 79 84 86 87 84 79 81 88 90 88 88 88 85 82 79 76 73 71 70 69 68 66 64 64 61 59 58 57 57 57 57 53 49 46 45 47 50 53 55 53 51 51 49 46 45 45 41 40 41 42 42 33 27 30 33 34 35 38 39 37 37 37 35 35 34 34 33 32
59 61 62 63 65 65 66 66 67 67 68 68 69 69 68 67 68 68 69 73 78 83 85 84 82 79 79 86 90 90 90 88 86 84 80 77 75 73 72 70 70 68 66 65 63 61 60 61 61 61 61 60 58 53 50 52 55 56 58 57 55 53 51 48 45 43 40 40 42 41 40 33 28 31 33 34 36 39 38 36 37 39 38 36 35 33 31 30
58 59 60 62 63 64 65 66 66 66 66 67 67 67 67 67 68 70 72 74 78 83 87 83 75 74 81 86 87 88 90 88 86 84 81 78 76 74 74 72 71 70 68 67 66 64 63 64 63 63 64 64 64 62 60 58 55 55 58 59 56 53 50 47 42 39 38 40 43 42 40 34 30 33 34 35 38 39 37 36 37 39 40 37 35 32 29 28
56 57 59 60 62 63 64 65 65 65 65 65 66 66 67 69 70 71 74 76 79 84 87 85 74 71 83 88 87 86 86 87 88 86 82 79 78 76 74 74 72 71 71 70 69 67 66 66 67 68 68 67 65 64 64 61 57 55 55 55 55 53 50 45 40 38 39 42 46 46 42 36 34 36 37 37 39 40 38 36 36 37 37 37 36 32 29 27
55 56 57 59 60 62 63 64 64 64 64 65 65 67 69 72 73 74 76 76 78 80 81 82 76 73 83 89 89 88 83 83 88 89 86 81 79 78 77 77 76 74 75 73 71 70 69 69 72 72 69 66 64 63 64 64 61 56 52 51 52 53 52 47 40 39 41 45 49 49 46 40 39 40 38 38 40 41 38 34 32 32 33 35 35 32 29 26
53 54 56 57 59 61 62 62 63 63 64 64 65 67 68 71 74 75 76 75 75 76 78 81 78 74 81 87 88 89 83 80 82 85 87 85 81 80 80 80 80 79 78 76 74 73 72 74 75 72 67 64 63 63 64 66 64 60 54 50 50 51 52 48 42 40 44 49 51 52 51 44 41 41 39 39 42 41 37 33 30 28 30 32 32 28 27 26
52 53 54 56 57 59 60 61 62 62 64 64 65 66 66 67 70 70 72 74 75 76 78 82 82 79 81 83 85 85 79 77 79 80 82 84 84 84 84 83 82 82 80 79 79 78 77 79 76 71 67 66 66 66 67 67 67 65 60 56 54 53 53 50 45 43 46 52 52 52 54 49 43 42 41 42 45 41 36 34 30 29 30 29 26 24 25 26
50 51 52 54 56 57 58 59 60 59 61 64 65 65 65 66 68 68 69 71 74 75 78 82 85 85 82 81 82 81 75 72 76 77 76 79 82 84 85 84 83 83 82 82 82 82 83 81 76 71 70 69 70 71 69 69 69 69 67 64 62 59 57 54 48 44 46 50 51 51 55 54 47 45 45 44 45 41 36 36 34 32 31 27 25 24 25 24
49 50 51 52 53 55 56 58 59 58 56 58 60 61 61 62 65 68 68 70 74 75 77 81 85 86 82 80 81 77 71 70 74 75 73 74 78 83 85 84 83 83 84 84 83 82 82 79 75 72 73 74 74 73 71 70 70 70 69 67 65 64 62 57 50 46 48 50 51 52 58 59 51 48 47 43 44 43 38 38 38 35 32 29 28 27 25 22
47 48 49 50 52 53 54 56 58 58 56 54 56 58 57 57 59 62 64 68 74 76 77 80 85 86 81 79 81 77 68 66 70 72 71 71 73 77 82 85 84 83 84 84 83 82 80 79 76 73 74 76 76 75 73 72 71 70 69 66 64 64 64 61 54 50 52 53 53 55 60 62 55 50 48 45 45 45 42 41 39 37 34 32 30 29 26 25
46 47 47 49 50 50 51 53 54 55 56 54 55 55 54 55 53 53 57 61 69 76 77 79 83 86 81 76 80 81 73 68 68 66 64 67 70 73 77 82 84 85 84 82 83 84 82 81 79 76 76 76 75 76 74 72 72 71 69 64 63 64 65 65 60 55 56 56 54 56 61 64 59 53 50 48 48 48 45 43 40 37 36 33 29 28 27 27
44 45 46 46 47 47 48 49 50 53 55 54 54 53 51 52 50 49 52 57 66 73 74 77 82 83 80 75 77 81 80 75 72 67 59 59 64 69 73 77 80 83 84 83 84 87 86 84 83 81 80 79 78 78 76 73 72 72 70 65 63 64 65 66 63 60 59 56 54 56 61 67 63 55 51 50 50 49 46 43 41 38 37 34 30 27 27 26
43 43 44 44 44 43 44 45 48 50 51 51 52 52 49 48 50 50 52 57 64 70 72 75 79 81 81 76 74 79 81 76 73 72 66 60 59 64 70 73 75 79 83 86 88 90 88 87 87 85 84 84 83 80 77 73 71 71 70 67 64 64 65 66 65 63 60 58 58 57 58 67 67 57 52 51 49 48 46 43 41 40 39 37 34 30 28 26
41 42 42 43 43 43 43 45 47 47 48 49 49 49 47 46 48 51 55 60 60 63 69 74 78 83 85 80 75 78 81 75 71 72 74 71 68 69 69 68 69 74 79 83 83 84 85 85 87 87 85 85 83 80 77 73 70 69 69 68 65 64 65 65 65 64 63 64 64 59 57 64 70 63 55 52 48 46 45 42 42 42 42 40 36 32 29 28
40 40 41 41 43 45 46 46 48 48 47 48 49 50 51 50 52 56 60 63 60 59 64 70 77 83 86 83 78 77 79 77 71 66 69 73 73 73 70 65 66 71 77 79 78 78 80 80 83 86 86 84 79 77 75 72 69 67 67 68 66 65 65 64 62 58 60 68 69 63 59 63 69 66 59 53 48 45 45 45 44 44 43 40 35 32 29 29
39 39 40 40 41 44 48 49 50 51 49 50 52 54 58 56 55 58 58 55 56 61 63 65 73 80 84 85 81 78 77 77 74 63 60 66 68 70 69 65 67 71 75 78 78 79 80 81 83 86 86 84 80 77 76 73 70 68 68 69 67 66 65 65 64 61 64 72 72 66 65 68 71 66 58 54 49 46 46 47 45 42 40 37 33 30 28 29
38 38 38 40 43 45 48 48 49 50 49 50 53 57 62 60 57 58 54 48 52 61 63 62 66 74 83 87 85 81 77 77 78 67 58 63 65 66 69 69 69 72 74 77 78 79 82 84 85 85 85 85 83 81 81 78 75 72 71 71 70 70 69 69 71 71 73 76 74 71 73 76 75 67 59 54 50 47 46 46 44 41 37 34 30 27 27 29
37 36 37 41 45 47 49 47 47 49 48 49 52 57 63 65 63 58 51 50 54 56 58 61 63 67 79 90 90 85 80 77 77 68 60 65 69 66 68 71 72 74 75 75 75 77 80 83 86 86 86 87 85 84 84 83 82 80 78 77 76 76 77 77 78 79 79 79 78 78 80 82 78 71 65 60 55 51 47 44 42 40 35 30 25 24 27 31
36 37 40 43 46 49 51 49 46 47 49 50 51 55 62 67 67 61 53 53 56 54 54 58 61 64 73 89 94 90 85 80 76 69 62 67 73 72 70 72 73 76 77 75 75 77 78 81 86 87 88 90 88 86 86 84 82 82 80 79 80 81 82 82 80 80 80 80 80 81 85 86 79 72 69 65 61 56 50 44 41 39 36 30 27 28 31 34
38 40 42 44 47 51 52 49 44 44 48 51 53 56 62 65 64 63 60 58 57 56 54 54 59 63 68 81 93 94 90 84 79 73 67 68 74 76 76 76 75 76 77 76 75 75 75 77 79 80 82 85 86 84 84 83 82 81 78 78 81 81 81 81 80 78 76 77 79 82 85 84 78 75 73 70 66 61 54 49 45 43 41 38 37 36 37 37
40 42 43 44 47 52 53 50 46 44 46 50 55 58 59 59 60 63 65 63 59 57 56 54 56 62 65 73 88 96 95 90 83 75 71 70 73 78 79 80 78 76 75 74 73 73 73 73 72 73 74 77 79 79 81 83 83 83 82 83 82 79 79 80 81 80 78 78 81 84 85 83 81 80 78 74 71 66 60 55 52 51 50 48 45 43 40 39
42 43 44 44 45 49 54 52 47 45 47 51 57 60 58 56 58 61 64 64 62 59 58 57 55 57 62 69 82 95 98 95 88 78 72 71 74 78 79 79 78 76 75 74 73 74 75 73 72 72 72 72 73 75 77 80 82 84 85 84 81 79 79 79 79 80 80 81 84 86 86 86 85 84 80 77 74 71 66 61 58 57 56 54 50 47 45 42
43 44 44 44 44 47 51 51 46 44 47 51 56 60 61 59 58 58 59 61 63 63 60 59 56 54 56 62 74 91 99 97 92 82 73 72 75 78 77 77 77 75 73 73 74 75 76 76 76 74 72 70 70 74 76 77 79 83 84 83 81 81 82 81 81 82 83 83 86 88 88 89 89 86 82 78 75 72 70 67 63 61 59 57 55 52 49 46
44 44 44 45 45 47 48 48 46 43 47 52 54 58 62 64 63 60 57 57 59 62 63 62 60 56 54 55 65 84 98 100 95 86 75 72 77 82 80 77 76 75 74 72 71 72 73 75 78 76 73 73 73 75 78 78 78 80 82 83 84 83 82 81 81 83 84 85 87 89 92 93 91 87 83 80 77 75 74 71 68 64 62 59 58 56 52 48
46 45 45 46 47 48 48 46 46 45 48 50 52 56 58 61 66 66 61 58 57 58 61 63 63 60 56 54 59 73 91 101 99 91 81 72 73 84 89 84 77 75 77 77 71 68 67 68 73 76 75 76 77 77 77 77 78 81 83 84 86 87 87 85 83 82 81 84 87 89 93 96 91 86 86 84 81 79 78 76 73 69 65 62 59 58 55 51
47 46 47 47 48 49 48 46 47 48 49 49 51 54 55 55 61 65 65 63 60 57 57 59 63 63 60 57 58 64 80 95 100 97 92 80 69 74 88 91 81 72 74 79 75 67 64 61 64 72 76 77 78 75 72 72 74 77 80 81 82 84 87 88 89 88 86 86 88 90 96 99 94 90 90 88 85 83 80 79 77 73 70 67 63 61 59 56
47 47 49 49 49 49 49 49 49 48 48 50 51 52 53 53 55 58 61 64 63 60 57 56 60 63 63 62 60 62 70 84 93 95 97 93 75 66 76 84 81 72 68 75 77 68 64 60 57 64 72 75 76 75 73 72 72 73 74 75 75 77 82 86 88 88 87 89 91 92 97 100 96 92 92 90 87 84 82 80 79 76 73 70 67 65 62 60
48 48 48 49 50 49 48 49 50 49 49 50 50 51 52 52 54 54 55 59 62 63 62 58 58 60 63 64 62 63 66 73 81 86 92 98 87 72 69 73 75 70 65 70 73 67 63 61 57 58 64 68 71 75 76 75 75 76 77 75 74 76 77 80 81 81 83 87 89 90 96 98 94 91 90 90 88 85 83 81 79 77 75 72 71 69 65 63
48 48 48 49 49 49 49 50 51 51 51 51 50 51 52 52 52 52 53 55 57 60 61 61 59 58 60 63 64 64 65 68 74 78 84 95 95 82 73 71 69 66 63 65 67 64 60 60 57 54 56 59 60 63 69 74 76 77 79 79 78 78 77 77 77 77 81 84 84 86 91 93 92 91 89 89 89 87 85 83 81 80 78 76 74 71 68 65
47 50 51 50 50 50 51 52 51 50 51 53 52 50 50 51 51 51 52 53 53 54 57 59 60 59 59 61 63 65 66 68 69 72 76 87 95 91 82 76 72 67 63 61 62 61 59 59 59 56 54 56 58 55 57 66 74 74 75 76 76 76 76 75 75 78 83 84 83 85 88 88 90 91 91 93 92 91 90 88 85 83 81 79 77 74 71 68
47 51 53 52 52 53 53 51 50 50 50 52 53 51 50 52 53 52 51 52 52 52 53 54 57 59 59 61 62 63 66 67 66 67 69 74 86 93 90 85 80 75 70 67 65 64 61 59 61 61 56 54 59 59 52 53 63 71 73 73 73 73 73 73 74 77 80 81 83 87 86 86 88 89 89 92 93 92 92 91 88 85 83 82 79 77 74 72
47 48 51 54 53 54 55 53 52 52 51 50 52 53 52 53 54 53 52 51 51 52 52 52 53 56 58 60 61 61 64 66 66 66 65 65 72 81 86 87 86 84 82 78 74 72 69 64 61 61 58 53 54 57 54 47 49 61 70 72 73 73 72 73 76 75 73 75 80 80 77 80 87 88 88 90 90 89 89 89 88 86 84 82 80 78 76 73
50 49 50 54 54 53 54 54 53 53 53 52 53 54 55 56 55 54 54 52 51 50 52 53 52 53 56 58 59 60 61 63 64 64 64 62 62 67 72 75 79 82 84 84 78 71 69 68 65 61 59 56 52 51 52 48 46 51 62 69 72 74 74 75 76 74 72 75 77 72 69 73 78 81 82 84 85 85 84 84 84 81 79 78 77 76 75 73
49 54 55 56 56 55 54 53 53 54 55 55 56 56 57 57 55 54 55 54 52 50 50 53 53 52 54 57 59 60 60 59 58 58 59 58 57 58 60 62 65 68 70 73 72 69 68 71 73 70 65 62 57 52 48 47 46 48 55 63 66 70 72 73 74 73 72 75 73 68 67 69 67 67 70 72 75 79 79 80 81 80 78 77 75 74 74 74
45 51 57 58 59 58 57 57 56 56 57 58 58 58 57 56 55 54 53 53 52 50 48 51 54 54 54 56 57 59 59 58 55 53 54 56 56 55 54 55 56 56 57 59 58 58 61 66 71 73 73 71 67 60 54 50 48 48 53 60 63 65 67 69 71 72 72 72 70 67 69 69 62 57 58 62 66 69 73 77 80 82 81 80 79 78 78 77
48 48 52 56 58 58 59 60 59 59 59 59 58 58 57 55 54 54 53 51 50 49 47 48 52 55 55 55 56 57 58 59 57 54 53 55 56 55 53 52 50 48 49 51 51 48 51 58 60 62 68 74 73 71 68 61 56 53 53 57 61 62 63 66 68 70 72 72 70 68 69 67 58 51 52 57 60 62 66 70 73 75 75 76 77 78 78 78
49 50 51 53 54 54 55 57 58 58 59 58 57 57 56 55 54 54 52 50 49 48 47 48 51 54 56 56 56 56 57 59 59 57 55 54 55 55 54 53 51 48 46 48 51 51 53 60 62 61 64 70 72 72 71 70 69 61 50 47 53 58 61 64 66 68 70 71 71 71 69 61 52 49 52 56 58 59 60 62 63 64 66 68 71 73 74 74
Wind_Direction
230 228 228 228 228 228 227 227 226 225 224 224 222 222 222 222 223 223 223 223 223 224 224 225 226 226 227 227 228 229 229 229 229 229 229 230 231 229 228 228 226 226 225 224 224 224 224 225 226 227 228 228 229 229 229 230 232 233 231 223 218 226 233 235 233 229 225 220 218 225 225 221 220 221 220 219 220 221 220 218 217 216 214 214 215 216 214 208
231 229 228 227 227 227 227 227 226 226 225 224 223 222 222 222 222 223 224 223 224 224 224 225 225 226 227 227 228 229 229 229 229 228 229 230 231 229 229 229 228 227 227 225 225 224 224 226 227 227 227 227 227 229 229 230 231 232 234 227 221 227 232 234 234 231 229 223 218 223 226 226 223 223 222 219 219 222 223 222 221 220 219 219 219 221 222 218
231 230 228 227 227 226 226 227 226 226 225 224 224 222 222 222 222 223 224 224 224 224 225 225 225 226 227 227 227 228 229 229 228 227 228 230 231 230 230 230 229 228 228 227 226 224 223 225 227 226 226 225 225 227 228 229 230 231 233 230 225 229 232 235 237 234 232 228 222 222 226 229 227 225 224 221 220 222 224 224 224 224 224 223 223 225 228 229
231 230 228 227 226 226 226 226 226 226 225 224 224 223 222 222 222 222 223 224 224 224 225 225 225 226 227 228 228 228 228 229 227 226 228 230 231 231 231 231 230 229 228 228 228 226 224 224 226 226 225 225 225 226 228 229 230 231 231 228 227 231 232 236 238 235 234 232 226 224 226 230 231 229 226 223 220 222 224 224 226 227 227 227 226 227 229 231
230 229 228 227 226 225 225 225 226 226 226 224 224 224 223 222 222 222 223 224 224 224 225 225 226 226 227 227 228 228 228 228 226 226 229 230 231 232 231 231 231 230 229 229 229 228 227 226 227 228 227 226 225 226 228 230 232 232 230 226 226 230 233 236 237 235 234 234 231 228 227 230 233 233 230 225 221 221 224 224 226 229 229 228 228 228 230 231
230 229 228 227 226 225 225 225 225 225 226 225 224 223 223 222 222 222 223 224 224 224 225 225 226 226 227 227 228 229 228 227 225 226 229 229 231 232 232 232 231 230 230 230 230 230 230 229 229 229 229 228 228 227 228 231 234 234 230 227 227 230 233 236 239 237 233 233 233 233 232 231 233 236 235 231 226 224 225 225 226 228 230 230 229 230 231 232
229 228 228 227 226 225 224 224 224 224 225 225 224 223 223 222 222 222 222 223 224 225 225 225 226 226 227 227 228 228 227 227 226 226 229 229 230 231 232 232 232 231 230 230 230 231 232 232 232 232 231 231 230 228 228 231 235 234 230 228 228 230 232 236 239 238 235 233 233 234 234 233 233 236 237 235 233 230 227 227 228 229 230 230 230 231 233 234
229 228 227 227 226 225 224 224 224 224 224 224 224 224 223 222 222 222 222 223 224 225 225 225 226 226 227 227 228 228 226 226 226 226 228 230 231 232 231 231 232 232 230 230 230 231 232 234 234 233 233 232 232 230 228 231 233 233 231 231 231 231 232 235 238 237 237 235 233 233 234 235 235 235 235 236 237 235 231 230 230 230 231 231 232 231 233 235
229 228 227 226 226 225 224 223 224 223 223 223 224 224 223 222 222 221 221 222 223 224 225 226 227 227 227 227 228 227 225 227 229 228 228 231 232 232 232 232 233 232 231 230 230 231 232 234 235 235 235 234 234 232 230 231 232 231 231 232 232 232 231 234 237 238 238 238 236 235 234 235 237 237 235 235 239 238 234 231 232 232 232 232 234 234 233 235
229 228 227 226 225 225 224 223 223 223 223 223 223 224 223 223 222 221 221 221 223 224 224 226 227 227 228 227 227 226 224 227 230 229 229 230 232 233 233 233 233 233 233 231 231 232 232 233 234 235 235 234 233 233 231 233 233 230 229 231 233 232 232 234 236 238 239 239 239 238 237 236 237 237 235 238 241 240 237 233 232 234 233 234 236 236 235 235
229 228 227 226 225 225 224 223 223 223 223 222 223 223 223 223 222 221 220 220 222 223 224 225 227 228 228 228 227 225 224 227 230 230 229 229 231 233 233 233 233 233 233 233 232 232 233 233 235 235 235 233 233 233 233 234 234 231 229 231 233 234 235 235 236 238 239 240 242 242 240 237 237 235 234 242 243 241 239 236 234 234 235 236 237 239 238 238
228 228 227 226 225 225 224 223 222 223 223 222 222 223 223 223 222 221 220 220 220 222 223 224 226 228 228 228 227 225 224 227 229 230 230 229 230 231 232 232 232 232 232 233 232 232 232 231 232 235 235 234 233 235 235 236 235 233 231 231 233 235 236 237 237 239 239 240 242 244 242 238 239 238 234 241 244 243 240 237 236 235 236 238 239 240 240 241
229 228 227 226 225 224 224 223 223 222 222 223 223 222 222 223 223 221 220 220 220 220 223 224 225 227 229 228 226 226 226 227 228 229 229 229 229 231 232 232 232 232 231 231 231 231 231 228 228 232 234 234 234 235 235 236 237 235 233 233 233 235 236 236 237 239 239 239 239 243 243 240 241 241 236 240 243 245 243 240 239 239 238 239 240 242 241 241
229 228 227 226 225 224 224 223 223 222 222 222 223 222 222 223 223 222 220 219 219 219 220 223 223 225 228 227 226 226 227 227 228 228 228 228 228 230 231 232 231 232 232 232 231 229 229 228 227 228 230 232 233 234 236 236 237 236 233 233 232 234 235 234 237 238 238 238 238 242 243 241 241 242 239 241 242 245 245 243 242 241 240 240 240 242 242 243
228 228 227 226 225 225 224 223 223 222 222 222 223 223 222 223 223 223 221 219 219 218 219 222 222 223 226 226 225 226 226 228 228 227 228 228 228 229 231 231 231 231 231 231 231 229 227 227 227 227 227 226 226 229 235 236 236 236 234 231 231 233 234 232 235 237 236 237 237 241 243 241 239 241 240 241 242 244 245 244 243 242 240 241 241 241 242 243
228 227 227 226 226 225 224 223 223 223 222 222 222 223 223 223 223 223 222 219 218 217 218 221 221 221 224 225 225 226 226 228 228 227 228 227 227 228 229 231 231 230 230 230 230 229 228 227 226 226 225 223 221 225 233 236 235 235 235 233 231 231 232 230 232 236 236 237 238 240 245 242 236 239 241 242 243 244 244 242 242 243 241 240 240 240 241 242
227 227 226 226 226 225 224 224 223 222 222 222 222 222 223 223 224 223 222 220 218 217 218 220 221 221 223 224 224 225 227 228 228 227 227 227 226 227 228 229 230 230 229 229 229 228 227 228 227 227 227 224 223 225 231 235 233 232 234 234 232 230 231 230 231 235 238 241 242 241 244 241 235 236 240 243 243 244 244 241 241 242 241 240 239 240 241 243
226 226 226 225 225 225 225 224 223 223 222 222 222 222 222 223 223 223 222 220 217 216 216 216 217 220 222 222 224 225 226 228 229 229 228 227 227 226 228 228 230 230 228 228 228 227 227 228 229 228 228 227 226 227 231 235 235 235 236 236 236 235 233 233 234 237 240 245 247 244 241 237 235 236 238 241 244 245 245 243 241 242 243 242 241 241 242 244
226 225 225 225 225 225 224 224 223 222 222 222 222 222 221 221 222 221 220 219 217 216 216 214 212 218 222 222 223 225 226 227 228 229 228 228 228 227 227 228 229 229 229 228 227 227 227 228 229 229 230 230 231 231 234 237 238 239 240 240 240 240 239 236 235 237 239 243 246 246 241 234 232 234 235 238 242 245 244 243 242 244 246 247 245 243 241 243
225 225 224 224 224 224 224 224 223 222 222 221 221 222 221 220 220 220 220 220 219 218 219 216 212 217 222 221 223 225 226 227 228 229 229 229 229 229 228 228 228 228 229 230 229 229 228 228 229 230 232 234 234 234 235 236 238 239 240 240 241 243 243 239 235 236 237 240 243 246 243 233 229 231 233 236 240 243 244 244 245 246 248 249 249 246 243 242
224 223 223 223 223 223 223 223 223 222 222 222 222 222 222 223 223 223 223 223 222 220 219 216 211 214 221 221 222 223 226 227 227 229 229 228 228 228 228 228 228 229 230 231 231 229 228 228 230 231 233 234 235 236 235 236 237 238 239 240 241 244 245 242 238 238 238 239 240 244 245 236 230 232 233 236 241 243 245 246 245 246 247 248 250 250 246 241
223 222 223 222 222 222 222 223 223 223 223 223 222 222 221 222 224 224 224 225 224 221 219 215 210 211 218 220 220 222 223 226 226 227 228 227 227 227 228 228 229 230 231 231 231 230 229 230 231 231 232 233 234 235 235 234 235 237 238 239 241 243 246 244 242 240 238 239 241 244 247 242 234 233 232 235 240 241 244 248 246 243 244 247 250 250 246 243
221 221 221 221 221 221 221 222 222 222 223 224 224 223 221 221 222 222 221 223 223 222 219 216 211 210 214 217 219 221 221 223 225 225 226 227 226 227 229 230 230 230 230 231 232 233 233 233 232 231 231 232 233 233 234 234 234 235 236 239 241 243 246 245 244 244 240 241 244 245 247 244 236 234 232 234 240 241 242 245 246 243 243 245 248 247 245 246
220 220 221 220 220 220 220 221 221 220 220 223 223 222 219 219 220 220 220 221 221 220 218 215 212 211 213 214 216 218 221 223 225 225 226 227 227 227 228 229 230 230 230 231 232 234 235 234 233 233 233 232 232 232 233 234 235 235 236 238 240 242 245 245 245 246 243 243 246 247 247 243 236 234 233 233 239 242 240 242 244 244 244 244 245 247 247 247
219 219 219 219 219 219 220 220 221 220 217 217 219 218 217 216 218 218 218 219 220 219 217 214 211 211 212 214 214 215 219 224 227 228 229 229 229 229 229 229 229 229 231 232 232 233 234 234 233 233 234 233 233 233 234 235 236 237 237 238 240 242 243 244 244 245 246 245 247 250 249 243 236 234 234 234 237 240 239 240 242 244 245 245 245 248 249 248
218 218 218 218 218 218 219 219 219 218 215 213 215 215 215 214 213 214 216 219 220 219 217 215 211 209 209 212 215 215 217 220 224 228 232 232 231 230 229 229 229 229 231 232 232 233 232 232 233 232 233 234 235 236 235 236 237 238 239 239 240 241 242 244 244 244 247 247 248 251 250 246 240 233 233 234 235 237 238 240 242 244 246 247 246 248 249 250
217 217 217 216 216 216 217 217 216 215 213 212 213 211 211 209 205 206 214 220 221 218 217 216 212 209 207 208 214 216 216 218 220 223 231 234 232 230 230 229 229 230 230 230 231 232 231 232 232 232 232 233 234 235 236 237 238 238 239 239 239 240 241 243 243 243 245 247 248 248 249 249 243 233 230 233 235 236 238 241 243 245 248 249 248 245 247 250
216 217 216 214 213 211 211 210 211 212 210 209 209 207 204 203 202 202 209 219 222 219 217 216 213 209 205 204 209 214 216 217 218 220 226 232 231 231 232 233 232 232 232 233 233 234 234 234 234 234 235 235 235 235 235 235 237 238 238 238 237 239 240 241 242 242 242 243 244 243 247 249 244 236 231 231 234 236 238 241 243 245 247 248 248 245 246 249
215 215 214 212 208 204 202 204 205 205 204 201 199 199 195 197 205 208 213 219 220 218 217 216 213 208 204 202 205 211 214 215 217 221 225 229 233 234 234 234 235 235 234 234 236 237 237 236 236 236 236 236 237 236 235 235 235 237 238 238 237 238 239 240 241 241 241 241 240 239 243 248 245 240 234 231 232 236 239 241 240 241 242 244 246 247 248 250
214 213 212 209 206 202 199 200 200 198 199 197 195 195 192 196 206 211 217 221 220 219 218 216 213 209 204 202 203 208 213 214 215 220 225 228 232 235 235 233 234 236 235 234 234 234 235 236 236 236 235 236 236 236 237 237 236 236 238 238 237 237 239 241 241 241 241 241 240 238 240 246 245 240 235 232 230 233 239 240 238 237 239 241 243 246 248 252
211 211 208 204 203 202 198 198 199 198 199 198 196 195 193 199 208 210 214 218 219 222 220 215 214 211 205 202 203 206 210 212 211 214 222 225 226 230 232 231 231 233 235 235 234 232 232 232 232 234 235 235 235 235 235 235 234 234 236 238 238 238 239 240 241 241 241 242 242 240 239 244 244 239 235 232 230 232 236 240 239 237 237 238 240 243 246 250
210 209 205 201 200 199 198 199 200 201 204 203 201 198 195 202 213 214 212 212 217 223 220 215 214 213 208 203 203 205 207 210 209 209 217 223 224 226 228 229 229 229 231 233 234 234 233 233 233 233 233 234 233 233 233 232 230 230 231 234 236 237 237 238 240 241 242 243 243 241 240 241 241 238 237 234 231 233 236 239 239 235 234 235 238 243 247 250
207 204 201 201 199 197 197 199 202 205 206 205 205 202 200 207 213 212 210 210 215 221 220 216 214 213 211 206 204 205 206 209 210 210 214 219 221 224 226 227 228 228 229 231 233 233 234 234 234 233 232 232 232 231 232 233 233 232 232 233 235 236 237 237 237 239 241 242 242 241 241 241 240 239 240 239 236 236 236 237 236 231 231 232 237 248 251 251
202 198 198 200 200 198 197 198 201 206 207 205 205 204 204 209 210 207 209 211 214 219 219 217 213 212 212 210 208 206 206 209 212 213 215 216 216 218 222 225 228 228 228 229 231 233 234 234 234 234 233 233 233 233 234 236 237 237 236 236 235 236 238 238 239 239 240 241 241 241 241 241 240 239 241 242 243 242 239 238 234 228 225 228 239 250 251 250
200 196 197 199 202 201 199 200 201 204 207 206 206 206 207 209 208 207 211 213 215 218 219 218 215 213 213 212 209 207 207 211 214 215 216 217 215 214 216 220 225 229 227 227 230 233 235 237 238 238 238 238 238 236 235 234 234 235 235 234 234 236 240 241 241 242 243 244 244 243 244 245 244 243 244 245 246 246 243 240 235 229 229 234 242 248 250 250
200 197 196 199 203 202 201 202 201 203 205 205 206 209 209 210 210 211 214 217 217 218 220 220 218 215 214 213 210 207 208 211 214 215 215 216 217 213 213 216 220 224 225 226 231 234 236 237 238 239 238 239 239 239 239 235 234 235 234 234 235 237 239 241 242 242 242 242 243 243 244 245 244 244 244 244 245 245 243 242 239 240 242 244 246 250 252 252
199 197 197 198 201 203 204 204 204 204 204 205 208 209 209 210 213 214 217 219 219 220 222 222 221 218 216 214 211 207 208 210 212 214 213 214 216 214 212 214 216 218 221 225 230 236 240 240 239 239 239 238 238 239 240 238 237 237 237 238 238 237 236 238 240 241 241 241 242 242 243 244 244 243 242 243 244 245 244 244 244 246 249 251 252 254 256 255
199 197 197 198 198 202 205 205 206 207 206 207 209 209 210 212 214 215 218 220 221 221 223 223 222 220 218 217 213 209 209 211 212 212 213 214 216 216 213 213 215 215 217 220 224 231 238 240 240 240 240 239 239 238 239 238 236 235 237 238 237 236 236 237 238 240 242 243 243 244 244 244 244 243 243 243 245 247 248 248 248 248 250 253 255 257 257 257
199 197 196 196 197 202 206 206 207 209 210 210 210 210 212 215 217 218 219 220 222 222 224 224 223 222 221 218 216 213 211 212 213 212 212 213 215 218 218 215 216 217 218 218 220 224 230 235 238 239 239 238 237 237 237 237 237 237 236 236 235 236 238 239 240 242 244 245 246 246 246 245 244 244 246 246 246 248 250 250 250 250 250 252 255 256 257 257
196 197 196 195 196 200 203 205 207 211 213 214 213 211 213 217 220 221 221 222 223 222 224 225 224 224 222 219 219 217 214 215 216 213 212 212 212 217 221 221 218 219 221 220 218 219 222 227 233 235 236 235 235 237 238 238 239 239 238 237 236 237 238 238 239 241 242 244 246 246 247 246 244 245 247 248 247 248 249 251 251 252 252 252 254 256 257 258
193 196 196 196 198 200 200 202 206 210 212 214 214 214 214 218 221 222 222 223 224 224 224 225 225 225 224 221 222 221 218 218 220 218 215 215 211 210 216 221 220 216 217 218 216 215 217 220 226 231 233 235 237 241 244 243 243 243 243 242 241 241 240 240 239 239 239 241 243 245 246 244 242 243 245 246 247 247 248 250 251 252 253 253 254 255 256 258
193 196 196 196 199 201 201 203 207 208 209 212 214 214 215 217 220 221 222 224 224 224 224 225 226 225 225 223 223 224 222 221 223 223 221 219 216 209 209 213 215 212 211 213 214 213 213 214 219 225 230 236 240 242 243 242 243 244 244 245 245 244 243 242 242 243 243 243 244 246 247 245 242 243 245 246 247 248 249 250 252 253 255 255 256 256 256 258
193 195 195 196 199 202 203 206 209 208 209 211 213 214 213 216 220 221 221 223 224 225 225 224 225 225 225 225 224 225 225 225 227 228 226 223 220 215 209 207 208 208 207 208 210 210 211 212 214 219 225 231 237 240 240 239 240 241 242 243 243 244 244 245 246 246 247 247 247 248 250 247 244 246 248 249 250 251 251 253 254 255 256 257 257 257 257 257
193 195 196 197 199 202 205 209 211 210 209 209 211 214 213 214 219 221 221 221 222 224 225 224 225 225 225 225 225 225 228 230 230 231 230 227 223 219 215 211 210 210 207 205 206 207 209 210 211 213 217 221 227 234 237 238 238 239 241 242 243 243 244 244 245 244 245 246 246 247 249 248 244 245 248 249 251 252 252 253 254 254 255 255 256 257 257 256
195 197 197 198 199 201 205 209 210 211 211 209 210 213 215 215 217 220 221 221 220 221 223 223 224 224 224 225 224 225 228 231 233 234 233 230 226 223 220 218 217 217 215 211 209 208 208 208 208 209 212 214 218 223 229 236 238 239 241 241 241 242 242 243 243 242 242 244 244 245 248 247 244 244 246 246 248 249 249 250 250 251 252 253 253 255 255 256
201 202 199 198 199 202 205 207 208 210 213 212 212 212 215 217 218 220 222 222 220 219 220 222 222 223 224 225 224 225 228 231 234 236 236 233 229 227 226 225 225 225 224 224 223 222 218 212 208 208 210 212 215 217 220 229 237 238 239 241 241 241 242 243 243 243 244 245 246 246 249 249 246 245 246 247 248 249 250 251 251 251 252 253 253 254 255 256
204 205 203 202 202 203 206 207 208 209 211 213 213 213 214 216 218 219 221 222 221 220 220 221 221 221 222 224 225 226 228 232 234 237 238 237 234 232 231 232 233 232 231 233 236 238 235 227 217 213 211 208 210 214 215 220 230 236 237 239 240 240 241 242 242 244 246 246 246 247 250 250 248 246 246 248 250 251 251 252 253 253 254 254 255 255 256 256
203 203 204 204 205 207 208 208 209 209 210 211 212 213 215 216 218 219 221 223 223 221 220 220 220 220 220 222 224 226 229 233 235 238 241 241 240 239 238 238 240 239 238 240 243 244 244 239 232 224 219 214 212 212 215 217 223 231 235 237 238 239 239 242 244 245 246 248 249 251 251 252 250 247 247 249 251 252 252 253 254 255 255 256 256 256 257 257
202 202 203 203 204 207 209 210 209 209 209 210 211 212 215 217 218 220 222 225 225 223 221 220 220 221 221 221 223 225 228 232 235 237 239 241 241 242 242 243 243 243 242 243 245 247 248 245 241 237 231 226 222 217 217 220 222 227 233 234 236 238 238 240 243 244 246 248 251 251 251 251 249 246 246 248 249 251 253 253 254 254 255 256 256 256 256 256
203 201 202 203 204 207 208 209 209 208 208 210 211 213 215 216 217 218 220 223 225 225 222 220 221 223 223 223 223 224 226 230 234 235 236 238 239 240 241 241 242 242 241 242 243 246 248 247 246 245 242 237 232 227 224 224 223 225 228 227 229 235 238 240 241 243 244 247 249 248 248 247 245 242 243 245 247 248 250 252 253 253 253 253 254 254 254 254
209 205 202 200 201 203 204 206 207 207 207 208 211 213 215 215 215 216 218 220 224 225 223 221 222 224 225 226 225 226 227 229 233 235 235 236 238 239 239 238 238 238 238 240 240 240 243 246 247 248 247 243 240 238 235 232 227 222 219 219 221 226 234 239 242 243 244 246 247 247 246 245 244 242 242 244 245 245 246 248 250 251 251 250 251 252 253 253
212 212 209 205 203 202 202 202 204 204 205 206 207 209 212 214 215 217 219 221 224 226 225 223 223 224 226 226 226 227 228 229 232 235 237 236 236 237 236 235 235 233 232 236 239 240 244 247 248 249 250 248 246 246 243 240 236 226 214 214 220 220 223 230 237 242 245 247 247 247 246 245 242 239 239 241 242 243 244 245 246 248 250 250 249 249 250 251
Height
5662 5666 5670 5675 5679 5683 5688 5693 5698 5704 5709 5714 5720 5725 5730 5734 5740 5745 5750 5755 5759 5764 5768 5772 5776 5779 5783 5786 5789 5793 5796 5799 5802 5805 5809 5816 5821 5824 5826 5828 5832 5834 5836 5839 5841 5844 5847 5850 5851 5852 5854 5857 5859 5860 5861 5862 5863 5864 5866 5868 5871 5873 5873 5874 5873 5874 5876 5878 5880 5881 5882 5884 5885 5887 5888 5889 5890 5891 5893 5894 5895 5896 5897 5898 5899 5900 5901 5902
5654 5658 5663 5668 5672 5676 5681 5685 5691 5696 5701 5707 5713 5718 5723 5728 5734 5738 5743 5749 5753 5758 5763 5767 5770 5774 5778 5781 5785 5788 5790 5794 5797 5801 5808 5813 5815 5818 5821 5824 5828 5830 5833 5836 5839 5842 5845 5848 5848 5849 5851 5853 5855 5856 5858 5859 5860 5862 5864 5867 5871 5872 5872 5870 5869 5871 5873 5876 5878 5879 5880 5881 5883 5884 5885 5887 5889 5890 5891 5893 5894 5895 5896 5897 5898 5899 5900 5901
5646 5651 5656 5660 5665 5670 5674 5678 5683 5688 5694 5700 5705 5711 5716 5721 5728 5732 5737 5742 5748 5752 5757 5761 5765 5769 5773 5776 5780 5783 5785 5788 5791 5798 5806 5808 5810 5814 5817 5820 5823 5827 5830 5833 5836 5838 5841 5843 5842 5843 5846 5848 5851 5853 5854 5855 5858 5860 5862 5867 5871 5870 5869 5868 5867 5870 5872 5874 5876 5878 5878 5879 5880 5881 5883 5885 5887 5889 5890 5891 5892 5893 5894 5895 5897 5898 5899 5900
5638 5643 5648 5653 5658 5662 5667 5672 5676 5681 5686 5692 5698 5704 5709 5715 5721 5726 5731 5736 5741 5746 5751 5755 5759 5763 5767 5771 5775 5777 5780 5782 5787 5797 5804 5805 5807 5810 5813 5816 5819 5823 5827 5830 5832 5834 5837 5838 5837 5839 5842 5845 5847 5849 5851 5854 5856 5858 5861 5867 5869 5866 5867 5866 5866 5868 5870 5872 5874 5875 5876 5877 5877 5879 5880 5883 5885 5887 5888 5889 5890 5891 5893 5894 5895 5896 5898 5898
5631 5635 5640 5645 5650 5655 5660 5665 5670 5674 5679 5685 5691 5696 5703 5709 5714 5719 5725 5730 5735 5740 5745 5749 5753 5758 5761 5765 5769 5772 5774 5777 5785 5796 5800 5801 5804 5805 5809 5812 5815 5819 5823 5826 5828 5831 5833 5833 5834 5836 5838 5842 5844 5846 5850 5854 5855 5856 5861 5865 5864 5863 5864 5864 5863 5865 5868 5870 5872 5873 5874 5875 5875 5876 5877 5880 5882 5884 5886 5887 5889 5889 5891 5892 5893 5895 5896 5896
5623 5628 5632 5638 5643 5648 5653 5658 5663 5667 5672 5678 5683 5689 5695 5701 5708 5713 5718 5723 5728 5734 5739 5743 5748 5751 5755 5759 5762 5764 5768 5774 5783 5792 5795 5796 5799 5801 5805 5808 5811 5815 5819 5822 5824 5826 5828 5829 5831 5832 5836 5840 5842 5846 5850 5852 5851 5854 5859 5861 5861 5861 5862 5862 5861 5863 5866 5868 5870 5871 5872 5873 5873 5873 5875 5878 5881 5882 5884 5886 5887 5887 5889 5890 5892 5893 5893 5894
5615 5620 5625 5630 5635 5641 5646 5651 5656 5661 5666 5671 5676 5681 5687 5694 5701 5706 5712 5717 5722 5727 5733 5738 5741 5745 5749 5752 5755 5758 5764 5771 5779 5787 5790 5792 5794 5796 5800 5804 5807 5811 5814 5818 5820 5822 5824 5826 5828 5831 5835 5837 5840 5845 5848 5849 5848 5851 5856 5857 5858 5858 5859 5860 5859 5861 5864 5865 5867 5868 5869 5870 5870 5871 5872 5876 5879 5880 5882 5883 5884 5885 5886 5888 5890 5891 5891 5893
5608 5613 5617 5622 5628 5633 5639 5644 5649 5654 5659 5664 5669 5674 5680 5687 5693 5700 5706 5710 5716 5721 5726 5731 5734 5739 5742 5745 5750 5753 5760 5769 5774 5782 5786 5787 5790 5792 5795 5800 5802 5806 5810 5813 5816 5818 5820 5822 5825 5828 5831 5835 5839 5843 5845 5844 5843 5847 5853 5855 5855 5855 5857 5857 5856 5859 5861 5863 5864 5865 5867 5867 5867 5868 5870 5874 5876 5877 5880 5881 5882 5883 5885 5886 5887 5888 5889 5891
5600 5605 5610 5615 5620 5626 5632 5637 5642 5647 5653 5658 5663 5668 5674 5679 5685 5692 5698 5704 5709 5714 5720 5724 5728 5732 5735 5739 5744 5747 5758 5768 5770 5778 5783 5783 5786 5787 5792 5797 5799 5802 5806 5809 5812 5814 5817 5819 5822 5825 5829 5833 5837 5839 5840 5838 5839 5845 5851 5851 5850 5851 5853 5853 5854 5857 5859 5860 5861 5863 5864 5865 5864 5864 5869 5874 5873 5874 5877 5879 5880 5881 5883 5884 5884 5885 5887 5888
5592 5598 5603 5608 5614 5619 5625 5630 5635 5640 5646 5651 5656 5661 5666 5672 5678 5685 5691 5698 5702 5708 5714 5717 5722 5726 5728 5732 5736 5743 5757 5765 5763 5770 5777 5779 5781 5783 5788 5792 5795 5799 5802 5805 5808 5811 5813 5816 5819 5822 5825 5829 5832 5834 5835 5834 5837 5844 5846 5845 5845 5848 5849 5849 5852 5854 5855 5857 5859 5860 5862 5862 5860 5862 5869 5873 5871 5871 5873 5876 5877 5878 5880 5881 5881 5883 5885 5887
5586 5591 5596 5602 5607 5611 5617 5623 5628 5633 5639 5645 5650 5655 5660 5665 5671 5677 5684 5690 5696 5702 5707 5712 5716 5717 5721 5726 5730 5741 5755 5759 5757 5762 5769 5773 5776 5778 5783 5787 5791 5794 5797 5801 5804 5807 5810 5812 5815 5817 5819 5824 5827 5829 5831 5831 5835 5839 5841 5841 5842 5844 5845 5847 5849 5851 5853 5855 5857 5858 5858 5857 5856 5861 5872 5871 5867 5868 5869 5872 5874 5876 5877 5878 5879 5881 5882 5885
5579 5584 5589 5595 5600 5605 5610 5616 5622 5627 5632 5638 5643 5649 5654 5658 5664 5671 5677 5683 5689 5695 5700 5706 5708 5710 5715 5719 5726 5739 5749 5751 5750 5755 5762 5767 5770 5772 5776 5781 5785 5789 5793 5796 5800 5803 5806 5809 5811 5812 5814 5819 5823 5826 5826 5828 5831 5834 5836 5837 5839 5840 5841 5844 5847 5848 5849 5852 5854 5854 5853 5853 5855 5863 5871 5867 5863 5864 5865 5868 5871 5873 5875 5876 5877 5878 5881 5882
5573 5577 5582 5588 5593 5598 5603 5609 5615 5620 5626 5631 5636 5642 5647 5653 5658 5663 5669 5675 5682 5688 5693 5697 5700 5705 5706 5711 5723 5734 5740 5743 5743 5747 5754 5759 5764 5767 5770 5775 5779 5783 5787 5790 5794 5798 5801 5804 5807 5808 5810 5814 5818 5820 5822 5824 5827 5830 5833 5834 5835 5835 5836 5841 5844 5844 5846 5849 5851 5849 5847 5851 5856 5864 5867 5862 5861 5861 5862 5866 5868 5871 5872 5873 5875 5876 5878 5879
5566 5571 5576 5581 5586 5591 5597 5602 5608 5614 5619 5624 5630 5636 5641 5647 5651 5657 5663 5669 5674 5680 5685 5687 5693 5697 5696 5706 5718 5724 5731 5733 5732 5739 5746 5752 5758 5761 5764 5769 5774 5778 5782 5786 5789 5793 5796 5799 5801 5803 5805 5810 5814 5815 5817 5820 5822 5825 5827 5828 5830 5830 5832 5838 5839 5840 5843 5845 5848 5845 5842 5850 5858 5862 5862 5859 5858 5857 5858 5863 5865 5867 5869 5870 5872 5873 5875 5876
5560 5564 5569 5574 5580 5585 5591 5596 5602 5607 5613 5618 5623 5629 5636 5641 5645 5651 5656 5661 5666 5672 5677 5678 5684 5688 5690 5700 5709 5716 5723 5720 5723 5735 5740 5746 5753 5756 5759 5763 5767 5772 5777 5781 5784 5788 5791 5793 5795 5798 5801 5806 5810 5811 5812 5815 5817 5820 5821 5822 5824 5825 5828 5834 5835 5835 5840 5842 5844 5841 5839 5849 5858 5859 5857 5855 5855 5855 5856 5860 5861 5863 5865 5867 5869 5870 5872 5873
5554 5558 5563 5569 5574 5579 5584 5590 5595 5601 5606 5612 5617 5623 5630 5635 5640 5645 5649 5654 5658 5663 5667 5669 5676 5682 5684 5693 5702 5709 5711 5710 5720 5729 5732 5741 5747 5750 5754 5756 5760 5766 5770 5775 5779 5782 5786 5787 5789 5792 5795 5800 5803 5806 5808 5809 5811 5813 5814 5817 5819 5820 5823 5829 5830 5831 5837 5839 5839 5839 5839 5849 5856 5855 5852 5852 5852 5852 5853 5857 5858 5859 5861 5863 5865 5867 5868 5870
5548 5552 5557 5563 5567 5572 5578 5583 5589 5595 5600 5606 5612 5618 5624 5629 5634 5637 5641 5646 5649 5654 5659 5663 5672 5677 5678 5687 5694 5698 5702 5706 5714 5721 5727 5735 5739 5743 5747 5749 5754 5759 5764 5769 5772 5776 5779 5780 5783 5786 5789 5793 5797 5801 5802 5801 5804 5807 5809 5810 5813 5816 5819 5824 5828 5831 5836 5836 5836 5838 5839 5845 5851 5851 5849 5849 5849 5848 5850 5854 5855 5855 5856 5859 5861 5864 5866 5868
5542 5546 5551 5556 5561 5566 5571 5577 5583 5589 5595 5601 5607 5611 5617 5621 5624 5627 5631 5635 5640 5645 5648 5655 5666 5668 5668 5679 5685 5690 5697 5702 5708 5717 5723 5727 5732 5737 5741 5744 5748 5752 5757 5760 5764 5769 5772 5774 5778 5781 5783 5787 5791 5794 5796 5798 5802 5804 5805 5806 5810 5814 5818 5824 5829 5832 5834 5833 5832 5833 5836 5842 5847 5847 5846 5846 5845 5845 5847 5850 5851 5851 5853 5856 5859 5862 5865 5866
5536 5541 5545 5550 5555 5560 5565 5571 5577 5583 5589 5595 5599 5603 5607 5609 5611 5615 5620 5625 5630 5633 5636 5647 5658 5658 5662 5676 5682 5686 5693 5697 5703 5710 5715 5721 5727 5731 5734 5739 5742 5745 5748 5752 5757 5762 5765 5769 5770 5772 5776 5783 5789 5793 5796 5798 5799 5800 5802 5806 5810 5813 5817 5823 5828 5829 5830 5828 5825 5827 5831 5838 5841 5841 5842 5842 5841 5841 5843 5846 5848 5850 5852 5853 5856 5859 5862 5864
5531 5535 5540 5545 5550 5554 5560 5566 5571 5577 5582 5586 5590 5592 5595 5597 5600 5604 5609 5617 5624 5630 5639 5651 5658 5657 5662 5673 5678 5683 5690 5693 5697 5703 5709 5716 5721 5724 5728 5732 5735 5737 5740 5747 5754 5756 5760 5760 5761 5769 5779 5786 5789 5793 5795 5794 5794 5796 5800 5804 5807 5809 5813 5819 5824 5825 5825 5822 5820 5821 5826 5832 5835 5835 5838 5839 5837 5836 5840 5844 5846 5849 5850 5851 5853 5856 5860 5862
5525 5530 5534 5540 5544 5549 5555 5560 5566 5571 5574 5579 5582 5583 5588 5594 5597 5603 5612 5617 5622 5629 5637 5646 5652 5654 5659 5665 5670 5678 5682 5685 5691 5697 5702 5707 5711 5714 5717 5722 5726 5728 5737 5745 5747 5749 5750 5750 5759 5773 5780 5784 5787 5789 5790 5790 5790 5792 5797 5800 5802 5805 5808 5813 5819 5820 5820 5817 5816 5816 5818 5826 5831 5832 5836 5836 5832 5834 5838 5842 5844 5846 5847 5847 5850 5854 5857 5858
5520 5525 5530 5535 5539 5544 5550 5555 5560 5564 5568 5571 5573 5577 5585 5591 5596 5605 5612 5612 5616 5623 5627 5635 5643 5647 5653 5659 5664 5671 5674 5678 5684 5688 5693 5697 5700 5703 5708 5715 5719 5727 5738 5737 5734 5738 5738 5745 5765 5775 5775 5778 5780 5779 5781 5783 5786 5788 5792 5795 5797 5801 5803 5807 5813 5815 5814 5811 5812 5813 5812 5819 5828 5830 5832 5831 5827 5832 5837 5839 5841 5842 5843 5845 5848 5851 5852 5854
5515 5520 5525 5530 5535 5540 5545 5549 5553 5557 5560 5564 5568 5573 5581 5586 5591 5599 5602 5602 5609 5616 5620 5627 5634 5638 5645 5652 5658 5663 5668 5672 5675 5681 5687 5688 5692 5699 5704 5709 5716 5725 5727 5723 5727 5731 5734 5751 5768 5768 5768 5772 5769 5768 5772 5776 5779 5782 5787 5790 5793 5797 5799 5802 5808 5811 5811 5809 5808 5810 5808 5812 5822 5824 5826 5827 5825 5830 5835 5835 5836 5838 5840 5844 5846 5847 5848 5850
5511 5516 5520 5525 5530 5535 5539 5543 5545 5550 5554 5559 5564 5569 5576 5581 5586 5592 5595 5596 5601 5606 5613 5621 5628 5634 5640 5646 5653 5658 5662 5666 5669 5677 5681 5682 5687 5693 5697 5704 5711 5715 5715 5718 5725 5728 5736 5754 5761 5760 5763 5763 5758 5760 5766 5770 5774 5778 5782 5787 5790 5793 5795 5798 5804 5806 5806 5805 5804 5805 5802 5804 5815 5819 5821 5826 5825 5826 5832 5832 5832 5835 5838 5842 5843 5844 5846 5848
5507 5511 5516 5521 5525 5530 5534 5536 5540 5546 5550 5553 5558 5564 5571 5576 5581 5587 5590 5589 5592 5597 5604 5612 5620 5628 5635 5642 5648 5653 5659 5663 5668 5672 5674 5678 5684 5688 5693 5699 5702 5704 5709 5716 5720 5724 5735 5744 5749 5754 5755 5752 5752 5757 5763 5768 5772 5774 5779 5785 5788 5790 5791 5793 5798 5799 5799 5800 5801 5801 5796 5796 5808 5816 5818 5823 5822 5822 5826 5827 5829 5832 5835 5838 5840 5843 5845 5846
5502 5507 5512 5516 5521 5526 5528 5531 5537 5542 5544 5548 5555 5563 5568 5572 5579 5583 5584 5583 5583 5588 5595 5604 5612 5620 5630 5637 5642 5649 5655 5659 5667 5668 5668 5673 5679 5684 5689 5689 5692 5698 5706 5713 5713 5716 5727 5733 5739 5745 5744 5745 5750 5753 5760 5766 5768 5770 5777 5783 5784 5785 5786 5787 5791 5792 5792 5796 5797 5797 5793 5789 5799 5810 5814 5817 5817 5817 5822 5824 5827 5830 5832 5835 5838 5841 5842 5843
5498 5503 5508 5512 5517 5521 5524 5528 5533 5536 5540 5547 5555 5560 5564 5569 5574 5577 5579 5576 5574 5582 5592 5598 5606 5616 5627 5633 5637 5644 5646 5651 5662 5664 5664 5669 5673 5677 5679 5680 5687 5694 5701 5705 5699 5705 5721 5727 5729 5735 5737 5739 5743 5748 5758 5762 5762 5767 5773 5776 5778 5780 5780 5780 5783 5785 5788 5791 5790 5792 5792 5784 5788 5803 5810 5812 5813 5815 5818 5821 5825 5828 5829 5832 5835 5838 5839 5840
5495 5500 5504 5508 5513 5516 5520 5525 5528 5534 5541 5546 5551 5555 5559 5565 5568 5570 5573 5568 5568 5579 5587 5591 5601 5612 5622 5628 5632 5636 5639 5648 5657 5659 5661 5664 5666 5670 5672 5677 5685 5691 5696 5693 5692 5708 5721 5720 5724 5732 5733 5732 5737 5747 5752 5753 5756 5762 5766 5769 5773 5774 5772 5775 5776 5777 5782 5783 5781 5787 5791 5782 5780 5795 5805 5807 5810 5813 5816 5820 5823 5825 5827 5828 5831 5834 5836 5838
5492 5496 5501 5504 5507 5510 5515 5521 5525 5532 5537 5541 5546 5551 5556 5561 5563 5566 5565 5561 5567 5577 5581 5587 5596 5604 5611 5619 5625 5629 5635 5645 5650 5653 5658 5660 5661 5664 5667 5676 5684 5687 5688 5687 5696 5710 5712 5715 5724 5727 5724 5726 5735 5741 5743 5747 5753 5758 5759 5762 5768 5767 5766 5769 5769 5771 5775 5772 5775 5785 5789 5782 5776 5785 5798 5803 5808 5811 5813 5817 5820 5820 5822 5824 5828 5831 5833 5835
5488 5493 5496 5499 5502 5506 5511 5516 5521 5527 5531 5535 5541 5547 5552 5555 5557 5559 5555 5555 5567 5574 5576 5582 5589 5595 5605 5612 5619 5624 5631 5639 5645 5651 5654 5655 5657 5658 5664 5676 5679 5678 5679 5683 5692 5697 5700 5711 5715 5712 5716 5724 5731 5736 5740 5745 5749 5752 5752 5754 5759 5760 5762 5763 5763 5767 5765 5761 5773 5785 5787 5782 5772 5776 5790 5798 5805 5809 5809 5811 5813 5816 5818 5822 5826 5829 5831 5832
5485 5489 5492 5495 5499 5503 5508 5512 5517 5523 5527 5530 5535 5539 5544 5548 5549 5549 5548 5556 5567 5568 5570 5578 5583 5591 5602 5609 5614 5620 5626 5633 5640 5646 5648 5649 5652 5653 5659 5667 5669 5670 5672 5675 5681 5684 5690 5697 5696 5700 5712 5720 5724 5728 5733 5737 5740 5743 5744 5746 5750 5753 5756 5756 5756 5758 5753 5756 5773 5782 5782 5777 5766 5770 5784 5793 5800 5804 5804 5805 5809 5814 5817 5820 5824 5826 5828 5828
5482 5486 5490 5492 5495 5500 5505 5511 5516 5520 5523 5527 5530 5534 5538 5539 5538 5539 5547 5559 5562 5559 5565 5576 5582 5590 5600 5606 5611 5616 5623 5629 5634 5640 5643 5645 5647 5648 5652 5656 5660 5662 5661 5664 5672 5677 5683 5687 5690 5699 5706 5709 5714 5719 5721 5723 5727 5732 5736 5739 5740 5743 5746 5746 5747 5747 5747 5756 5770 5773 5770 5764 5761 5769 5779 5787 5794 5798 5800 5803 5807 5811 5815 5818 5821 5823 5824 5824
5479 5483 5487 5488 5491 5496 5502 5508 5513 5516 5519 5522 5525 5530 5532 5530 5529 5537 5548 5555 5554 5555 5565 5574 5580 5587 5595 5599 5603 5610 5618 5623 5628 5634 5638 5640 5641 5643 5646 5648 5652 5655 5656 5661 5667 5670 5676 5680 5682 5687 5692 5696 5703 5707 5708 5713 5718 5722 5727 5731 5731 5733 5734 5734 5738 5739 5741 5751 5759 5761 5757 5751 5759 5770 5774 5780 5787 5792 5797 5800 5804 5809 5812 5815 5818 5820 5821 5820
5476 5479 5481 5484 5489 5493 5498 5503 5508 5511 5514 5517 5521 5525 5526 5524 5529 5539 5546 5548 5550 5554 5561 5568 5575 5581 5585 5590 5596 5605 5610 5614 5621 5627 5631 5634 5635 5636 5640 5643 5646 5650 5654 5659 5660 5661 5667 5668 5668 5675 5684 5690 5695 5700 5706 5714 5717 5718 5725 5728 5725 5725 5724 5727 5733 5733 5737 5745 5748 5748 5742 5742 5759 5769 5770 5776 5781 5786 5793 5797 5802 5806 5809 5813 5815 5816 5817 5816
5471 5473 5476 5481 5485 5489 5494 5500 5505 5507 5509 5513 5517 5519 5519 5523 5532 5539 5541 5543 5547 5552 5558 5564 5570 5573 5577 5582 5589 5598 5604 5607 5614 5620 5623 5627 5629 5631 5635 5637 5641 5645 5649 5653 5653 5656 5661 5663 5668 5678 5686 5690 5693 5699 5706 5708 5705 5708 5717 5716 5713 5720 5724 5725 5728 5731 5737 5740 5738 5738 5735 5743 5761 5766 5766 5772 5775 5781 5789 5792 5797 5800 5804 5809 5811 5812 5812 5812
5466 5469 5473 5477 5481 5486 5491 5496 5500 5503 5506 5510 5512 5514 5518 5526 5532 5536 5537 5540 5545 5550 5555 5558 5561 5565 5570 5575 5582 5590 5595 5597 5605 5612 5617 5621 5624 5626 5629 5631 5635 5640 5644 5647 5649 5652 5655 5659 5666 5673 5677 5682 5689 5695 5698 5696 5697 5703 5703 5700 5710 5723 5722 5718 5720 5724 5728 5725 5724 5729 5732 5742 5754 5754 5759 5766 5768 5775 5782 5786 5791 5793 5796 5801 5804 5806 5807 5808
5462 5466 5470 5473 5478 5483 5488 5492 5496 5499 5503 5506 5507 5512 5519 5524 5527 5530 5533 5536 5542 5546 5549 5551 5556 5560 5565 5570 5577 5584 5588 5590 5598 5604 5608 5614 5616 5619 5625 5629 5631 5635 5638 5641 5644 5646 5649 5655 5662 5665 5669 5677 5685 5688 5687 5688 5694 5696 5693 5700 5715 5716 5707 5707 5710 5711 5713 5711 5715 5723 5728 5737 5742 5743 5753 5761 5762 5768 5774 5781 5787 5787 5789 5792 5796 5800 5801 5803
5459 5463 5466 5471 5476 5480 5484 5489 5492 5496 5499 5501 5505 5511 5516 5518 5520 5524 5528 5532 5537 5540 5543 5547 5552 5557 5562 5568 5574 5579 5582 5585 5592 5597 5601 5606 5608 5614 5623 5626 5628 5632 5634 5636 5638 5640 5643 5648 5653 5657 5664 5672 5677 5676 5673 5675 5682 5684 5688 5699 5704 5697 5694 5699 5699 5701 5706 5707 5711 5721 5726 5728 5732 5738 5749 5757 5761 5765 5768 5774 5780 5783 5785 5786 5789 5793 5795 5797
5457 5460 5463 5468 5473 5477 5481 5486 5489 5492 5494 5496 5501 5506 5510 5513 5515 5519 5524 5528 5531 5535 5539 5542 5547 5553 5558 5565 5570 5573 5576 5579 5585 5592 5597 5599 5603 5612 5620 5621 5623 5628 5629 5630 5634 5636 5638 5640 5643 5650 5659 5664 5662 5660 5660 5666 5673 5677 5682 5688 5688 5687 5689 5693 5694 5699 5704 5704 5707 5716 5716 5716 5727 5740 5747 5752 5758 5761 5761 5765 5770 5775 5780 5782 5783 5786 5788 5791
5453 5458 5461 5465 5470 5474 5479 5483 5486 5487 5488 5492 5498 5502 5507 5508 5509 5514 5520 5523 5527 5531 5535 5539 5545 5549 5554 5560 5564 5566 5570 5574 5578 5585 5589 5591 5598 5606 5611 5614 5619 5622 5622 5624 5629 5632 5633 5634 5636 5643 5650 5648 5645 5646 5654 5664 5668 5668 5671 5675 5678 5680 5680 5685 5689 5692 5696 5697 5698 5704 5703 5708 5729 5741 5740 5744 5750 5753 5755 5758 5761 5766 5772 5775 5778 5779 5781 5784
5450 5454 5458 5463 5467 5470 5475 5478 5479 5481 5484 5489 5493 5497 5502 5503 5504 5510 5515 5519 5523 5528 5532 5537 5541 5545 5550 5555 5557 5560 5565 5569 5572 5577 5580 5584 5590 5597 5602 5610 5616 5616 5615 5617 5622 5626 5627 5628 5631 5636 5638 5637 5640 5648 5657 5665 5664 5662 5665 5669 5674 5676 5676 5677 5676 5679 5687 5686 5686 5691 5690 5701 5725 5730 5728 5734 5740 5744 5748 5751 5754 5759 5763 5767 5771 5773 5775 5777
5446 5449 5454 5459 5463 5466 5470 5473 5475 5479 5482 5485 5488 5493 5498 5499 5501 5506 5511 5515 5519 5523 5528 5532 5536 5541 5545 5549 5553 5556 5559 5563 5566 5569 5573 5578 5585 5592 5598 5604 5607 5608 5607 5610 5615 5619 5620 5620 5623 5627 5630 5632 5638 5646 5651 5656 5657 5657 5658 5663 5669 5670 5668 5667 5667 5675 5682 5678 5680 5685 5679 5692 5718 5721 5720 5728 5731 5737 5742 5744 5748 5752 5755 5760 5763 5766 5769 5771
5442 5446 5451 5456 5460 5464 5467 5468 5471 5475 5478 5482 5485 5489 5494 5495 5497 5502 5507 5511 5515 5519 5524 5528 5531 5536 5540 5545 5549 5552 5554 5557 5559 5562 5566 5572 5579 5586 5590 5593 5596 5598 5601 5605 5609 5611 5612 5614 5617 5621 5625 5627 5631 5635 5640 5646 5648 5645 5646 5653 5658 5657 5658 5662 5666 5674 5676 5670 5677 5679 5667 5684 5714 5719 5719 5725 5726 5732 5737 5738 5743 5746 5748 5752 5754 5757 5762 5765
5439 5445 5449 5454 5458 5461 5463 5464 5466 5470 5474 5478 5481 5484 5489 5492 5495 5499 5503 5506 5511 5515 5519 5524 5527 5531 5535 5539 5544 5547 5550 5552 5553 5556 5560 5566 5574 5580 5583 5586 5589 5591 5596 5601 5604 5606 5607 5609 5613 5616 5618 5620 5623 5625 5629 5634 5635 5634 5638 5645 5649 5651 5655 5657 5660 5665 5662 5658 5669 5668 5658 5679 5709 5714 5715 5718 5718 5724 5729 5730 5734 5736 5738 5742 5743 5747 5752 5755
5437 5440 5445 5450 5454 5457 5458 5461 5464 5467 5471 5475 5478 5481 5486 5489 5491 5495 5498 5502 5508 5512 5515 5520 5523 5527 5531 5533 5538 5542 5545 5546 5549 5551 5555 5561 5569 5574 5577 5580 5583 5586 5591 5595 5597 5599 5600 5602 5606 5607 5609 5612 5617 5620 5622 5624 5628 5630 5633 5637 5642 5646 5648 5649 5652 5651 5646 5650 5660 5655 5653 5678 5702 5704 5706 5710 5709 5712 5714 5716 5720 5724 5726 5731 5734 5738 5742 5744
5434 5436 5439 5444 5448 5451 5454 5458 5462 5465 5469 5473 5476 5479 5483 5486 5488 5490 5494 5498 5504 5509 5512 5516 5520 5524 5527 5529 5534 5538 5540 5542 5545 5547 5551 5557 5563 5568 5572 5574 5577 5580 5584 5587 5589 5591 5592 5595 5598 5600 5603 5608 5612 5616 5618 5620 5623 5625 5626 5629 5635 5638 5640 5644 5642 5636 5639 5648 5650 5646 5655 5675 5689 5695 5701 5701 5699 5702 5705 5706 5711 5716 5718 5722 5726 5730 5733 5735
5430 5433 5437 5440 5443 5446 5449 5454 5458 5462 5466 5470 5473 5476 5479 5482 5484 5487 5491 5494 5500 5505 5509 5512 5516 5520 5524 5527 5531 5534 5536 5539 5542 5544 5548 5552 5557 5562 5565 5567 5570 5573 5577 5580 5582 5582 5583 5587 5591 5594 5599 5604 5607 5610 5612 5614 5617 5618 5620 5623 5627 5631 5634 5633 5628 5630 5641 5641 5635 5644 5659 5665 5675 5690 5696 5692 5690 5695 5699 5700 5702 5707 5710 5714 5718 5721 5725 5728
5426 5430 5434 5438 5441 5445 5448 5452 5456 5459 5462 5465 5469 5472 5474 5477 5481 5485 5488 5491 5495 5501 5504 5508 5512 5516 5520 5522 5525 5528 5531 5534 5537 5540 5543 5546 5551 5555 5558 5562 5564 5566 5569 5573 5574 5574 5575 5579 5583 5587 5591 5596 5599 5601 5603 5607 5610 5612 5614 5616 5619 5623 5625 5623 5622 5630 5637 5629 5628 5647 5656 5654 5667 5683 5686 5685 5685 5687 5689 5691 5693 5698 5702 5706 5709 5712 5716 5720
5423 5426 5429 5433 5437 5442 5446 5450 5453 5456 5458 5461 5464 5466 5469 5474 5479 5483 5485 5488 5491 5496 5500 5505 5509 5511 5514 5516 5519 5522 5525 5528 5531 5534 5537 5540 5544 5548 5551 5555 5556 5558 5561 5564 5566 5566 5567 5571 5575 5578 5582 5587 5589 5592 5595 5597 5600 5603 5606 5608 5610 5613 5615 5617 5618 5624 5627 5623 5628 5644 5646 5644 5657 5670 5674 5678 5679 5677 5678 5681 5686 5691 5694 5696 5699 5703 5707 5710
5419 5423 5426 5429 5433 5437 5441 5444 5447 5451 5453 5456 5459 5463 5467 5472 5476 5479 5481 5485 5487 5491 5497 5501 5504 5505 5508 5510 5514 5518 5522 5525 5526 5528 5530 5534 5537 5541 5544 5547 5549 5551 5554 5556 5558 5559 5560 5564 5568 5569 5573 5576 5579 5582 5585 5586 5590 5594 5597 5600 5601 5604 5608 5610 5612 5617 5619 5618 5624 5633 5633 5634 5647 5661 5668 5670 5668 5667 5669 5673 5679 5684 5684 5685 5688 5692 5696 5699
5416 5419 5422 5425 5429 5432 5435 5439 5442 5445 5448 5452 5457 5461 5465 5469 5473 5475 5478 5482 5485 5488 5493 5496 5497 5499 5502 5505 5510 5514 5518 5520 5521 5523 5527 5532 5535 5537 5538 5541 5543 5546 5548 5550 5552 5554 5556 5559 5562 5563 5564 5568 5572 5574 5575 5579 5582 5584 5588 5594 5597 5599 5602 5604 5606 5610 5611 5612 5617 5621 5620 5628 5646 5660 5663 5660 5658 5660 5664 5668 5671 5670 5670 5674 5679 5683 5685 5686
5412 5415 5419 5421 5423 5426 5430 5434 5437 5441 5446 5450 5453 5457 5461 5465 5468 5471 5475 5479 5482 5484 5487 5489 5491 5494 5496 5500 5505 5509 5512 5515 5519 5521 5524 5527 5530 5530 5532 5535 5538 5541 5544 5545 5547 5550 5552 5555 5557 5558 5559 5564 5566 5566 5570 5573 5573 5575 5585 5593 5595 5594 5596 5598 5600 5603 5605 5607 5609 5609 5613 5629 5646 5653 5652 5649 5650 5655 5659 5661 5660 5659 5661 5665 5670 5674 5675 5675